EHI
0 0 0 0 0 0 0 0 0 0 0 0 0 0 0 0 0 0 0 0 0 0 0 0 0 0 0 0 0 0 0 0 0 0 0 0 0 0 0 0 0 0 0 0
0 0 0 0 0 0 0 0 0 0 0 0 0 0 0 0 0 0 0 0 0 0 0 0 0 0 0 0 0 0 0 0 0 0 0 0 0 0 0 0 0 0 0 0
0 0 0 0 0 0 0 0 0 0 0 0 0 0 0 0 0 0 0 0 0 0 0 0 0 0 0 0 0 0 0 0 0 0 0 0 0 0 0 0 0 0 0 0
0 0 0 0 0 0 0 0 0 0 0 0 0 0 0 0 0 0 0 0 0 0 0 0 0 0 0 0 0 0 0 0 0 0 0 0 0 0 0 0 0 0 0 0
0 0 0 0 0 0 0 0 0 0 0 0 0 0 0 0 0 0 0 0 0 0 0 0 0 0 0 0 0 0 0 0 0 0 0 0 0 0 0 0 0 0 0 0
0 0 0 0 0 0 0 0 0 0 0 0 0 0 0 0 0 0 0 0 0 0 0 0 0 0 0 0 0 0 0 0 0 0 0 0 0 0 0 0 0 0 0 0
0 0 0 0 0 0 0 0 0 0 0 0 0 0 0 0 0 0 0 0 0 0 0 0 0 0 0 0 0 0 0 0 0 0 0 0 0 0 0 0 0 0 0 0
0 0 0 0 0 0 0 0 0 0 0 0 0 0 0 0 0 0 0 0 0 0 0 0 0 0 0 0 0 0 0 0 0 0 0 0 0 0 0 0 0 0 0 0
0 0 0 0 0 0 0 0 0 0 0 0 0 0 0 0 0 0 0 0 0 0 0 0 0 0 0 0 0 0 0 0 0 0 0 0 0 0 0 0 0 0 0 0
0 0 0 0 0 0 0 0 0 0 0 0 0 0 0 0 0 0 0 0 0 0 0 0 0 0 0 0 0 0 0 0 0 0 0 0 0 0 0 0 0 0 0 0
0 0 0 0 0 0 0 0 0 0 0 0 0 0 0 0 0 0 0 0 0 0 0 0 0 0 0 0 0 0 0 0 0 0 0 0 0 0 0 0 0 0 0 0
0 0 0 0 0 0 0 0 0 0 0 0 0 0 0 0 0 0 0 0 0 0 0 0 0 0 0 0 0 0 0 0 0 0 0 0 0 0 0 0 0 0 0 0
0 0 0 0 0 0 0 0 0 0 0 0 0 0 0 0 0 0 0 0 0 0 0 0 0 0 0 0 0 0 0 0 0 0 0 0 0 0 0 0 0 0 0 0
0 0 0 0 0 0 0 0 0 0 0 0 0 0 0 0 0 0 0 0 0 0 0 0 0 0 0 0 0 0 0 0 0 0 0 0 0 0 0 0 0 0 0 0
0 0 0 0 0 0 0 0 0 0 0 0 0 0 0 0 0 0 0 0 0 0 0 0 0 0 0 0 0 0 0 0 0 0 0 0 0 0 0 0 0 0 0 0
0 0 0 0 0 0 0 0 0 0 0 0 0 0 0 0 0 0 0 0 0 0 0 0 0 0 0 0 0 0 0 0 0 0 0 0 0 0 0 0 0 0 0 0
0 0 0 0 0 0 0 0 0 0 0 0 0 0 0 0 0 0 0 0 0 0 0 0 0 0 0 0 0 0 0 0 0 0 0 0 0 0 0 0 0 0 0 0
0 0 0 0 0 0 0 0 0 0 0 0 0 0 0 0 0 0 0 0 0 0 0 0 0 0 0 0 0 0 0 0 0 0 0 0 0 0 0 0 0 0 0 0
0 0 0 0 0 0 0 0 0 0 0 0 0 0 0 0 0 0 0 0 0 0 0 0 0 0 0 0 0 0 0 0 0 0 0 0 0 0 0 0 0 0 0 0
0 0 0 0 0 0 0 0 0 0 0 0 0 0 0 0 0 0 0 0 0 0 0 0 0 0 0 0 0 0 0 0 0 0 0 0 0 0 0 0 0 0 0 0
0 0 0 0 0 0 0 0 0 0 0 0 0 0 0 0 0 0 0 0 0 0 0 0 0 0 0 0 0 0 0 0 0 0 0 0 0 0 0 0 0 0 0 0
0 0 0 0 0 0 0 0 0 0 0 0 0 0 0 0 0 0 0 0 0 0 0 0 0 0 0 0 0 0 0 0 0 0 0 0 0 0 0 0 0 0 0 0
0 0 0 0 0 0 0 0 0 0 0 0 0 0 0 0 0 0 0 0 0 0 0 0 0 0 0 0 0 0 0 0 0 0 0 0 0 0 0 0 0 0 0 0
0 0 0 0 0 0 0 0 0 0 0 0 0 0 0 0 0 0 0 0 0 0 0 0 0 0 0 0 0 0 0 0 0 0 0 0 0 0 0 0 0 0 0 0
0 0 0 0 0 0 0 0 0 0 0 0 0 0 0 0 0 0 0 0 0 0 0 0 0 0 0 0 0 0 0 0 0 0 0 0 0 0 0 0 0 0 0 0
0 0 0 0 0 0 0 0 0 0 0 0 0 0 0 0 0 0 0 0 0 0 0 0 0 0 0 0 0 0 0 0 0 0 0 0 0 0 0 0 0 0 0 0
Wind_Speed
2 5 8 9 9 6 4 7 9 6 2 5 9 13 14 9 8 9 9 8 7 7 6 4 4 3 3 4 5 6 6 5 4 4 4 4 4 4 3 3 4 5 4 5
4 8 7 4 5 6 7 9 9 4 1 4 8 13 13 9 9 7 7 6 6 6 4 3 3 2 3 4 4 5 6 6 6 4 4 3 3 3 3 3 3 4 4 4
8 2 3 5 6 8 9 10 9 6 4 4 7 10 8 5 4 4 5 5 5 5 4 3 2 2 2 3 4 4 6 6 6 5 3 3 3 3 3 4 4 4 4 4
6 3 4 6 7 8 9 6 7 7 6 5 4 8 6 4 4 5 4 4 4 4 3 3 2 2 2 2 3 4 5 5 5 5 5 6 5 5 5 4 4 4 4 4
4 3 5 7 7 8 4 2 5 6 6 6 6 8 8 3 6 6 4 3 4 3 3 2 2 2 2 1 1 2 4 4 5 5 6 7 6 5 4 4 4 4 4 4
2 1 4 4 2 4 3 2 2 3 4 8 8 9 9 5 6 4 3 3 3 3 2 2 2 2 2 1 0 1 2 3 3 4 5 6 6 5 5 5 4 4 3 4
4 3 2 2 3 4 5 4 3 4 5 7 4 8 9 4 3 3 3 3 2 2 2 2 2 3 3 2 1 0 1 2 2 3 4 4 5 6 6 6 5 4 3 3
5 5 6 4 5 6 8 7 6 5 5 3 5 9 5 2 2 2 2 2 1 2 2 2 2 2 2 2 1 1 0 1 1 2 3 3 3 3 3 5 4 4 3 4
5 4 1 2 2 5 7 7 3 2 1 5 6 6 6 2 2 1 1 1 1 2 2 2 3 3 3 2 1 1 0 0 1 1 1 1 2 3 3 3 4 3 3 3
4 4 1 1 1 2 3 3 4 5 5 7 6 7 5 4 4 2 1 1 1 1 2 2 3 3 3 2 2 2 1 1 1 1 1 1 1 2 2 2 2 2 3 3
3 3 1 2 7 7 6 5 5 4 4 5 6 5 1 3 3 3 2 1 1 1 2 2 2 2 2 3 3 2 2 2 2 1 1 1 1 1 1 1 2 2 2 2
3 3 4 5 1 3 5 6 8 6 6 5 6 6 1 1 2 2 1 0 1 2 2 2 2 3 3 3 3 3 3 2 2 2 1 1 1 1 1 1 1 1 1 1
4 3 3 2 3 2 4 6 7 5 4 6 8 7 2 1 0 1 1 2 2 1 2 2 2 2 2 3 3 3 3 3 3 2 1 1 1 1 1 2 1 1 1 1
3 4 7 9 4 4 5 6 8 8 7 8 12 12 7 5 4 3 3 2 1 1 1 1 2 2 2 3 3 3 3 3 2 2 2 2 2 2 2 2 1 1 1 1
3 5 6 9 8 5 8 10 11 14 14 12 13 14 13 10 7 5 3 2 1 1 1 1 2 2 2 3 3 3 3 2 2 2 2 2 2 2 2 1 1 1 1 1
3 4 3 7 7 8 11 12 13 15 15 17 17 17 11 6 4 5 4 2 1 2 2 2 2 2 2 2 3 2 2 2 1 1 2 2 3 2 2 2 1 1 1 1
4 4 4 7 3 5 12 12 13 11 12 12 17 15 5 5 6 5 3 2 2 2 2 2 2 2 2 3 3 2 2 2 1 1 2 2 2 2 2 2 1 1 1 1
6 5 3 4 2 13 7 2 9 11 12 11 11 8 5 5 3 2 2 2 2 3 3 3 3 3 3 3 3 2 2 1 1 1 2 2 2 2 2 2 2 2 2 1
8 7 5 5 8 12 7 3 4 7 9 6 8 8 4 1 1 3 2 2 3 3 3 3 2 2 2 2 2 2 1 1 1 2 2 3 3 2 2 2 2 2 2 2
5 6 6 6 8 10 5 0 1 3 7 1 3 5 3 2 4 3 1 2 2 3 2 2 2 2 2 2 2 1 1 1 2 3 3 3 3 2 2 3 3 2 2 2
5 6 9 11 11 10 3 1 2 5 4 2 2 2 3 3 3 2 1 2 2 3 3 3 2 2 2 3 2 1 1 2 4 4 3 3 3 3 3 3 2 2 2 2
8 7 8 7 10 10 1 3 4 2 3 2 2 1 2 2 2 2 2 2 2 3 4 4 2 2 3 3 2 1 2 4 4 3 3 3 3 3 2 2 2 2 2 2
8 6 5 7 6 1 2 3 0 1 2 2 3 2 2 2 2 2 2 2 2 3 4 4 3 2 3 3 2 2 3 4 4 3 3 3 3 3 3 2 2 2 2 2
4 1 3 5 6 4 3 2 2 2 2 3 2 2 2 2 2 2 2 2 2 3 3 3 3 3 3 4 3 3 4 4 3 2 3 3 3 3 3 2 2 2 2 2
4 4 4 7 5 4 3 3 2 2 2 2 2 2 1 2 2 2 2 2 2 3 3 3 2 3 3 4 4 4 4 3 3 2 2 3 2 3 3 2 2 3 3 3
5 6 7 7 4 5 4 3 3 2 2 2 2 2 2 2 2 2 2 2 2 2 3 2 3 3 4 3 3 4 4 3 2 2 2 2 2 2 3 3 3 4 5 7
Wind_Direction
166 205 217 214 219 246 245 243 253 255 251 256 256 269 275 274 262 263 264 265 268 269 272 267 253 239 228 220 207 200 198 195 188 190 194 196 197 196 195 195 193 194 188 185
186 230 238 222 210 223 237 247 255 262 239 269 279 277 274 264 259 259 261 265 271 278 284 279 258 228 219 221 217 207 202 198 196 199 202 206 201 201 199 192 198 199 193 188
219 224 188 193 201 218 234 240 248 258 300 259 288 276 253 239 238 248 257 262 269 272 280 287 278 243 226 231 227 216 208 205 203 196 187 182 187 192 198 205 206 207 201 191
232 230 195 206 218 220 245 236 239 247 262 266 264 282 268 244 255 253 257 261 270 275 276 285 281 257 243 250 238 224 213 205 200 193 194 195 200 207 210 207 205 198 199 198
221 201 203 217 226 212 237 225 222 236 243 264 230 250 266 238 250 247 244 259 276 287 281 284 293 276 270 279 242 222 209 200 196 198 203 204 213 219 210 199 202 195 194 203
248 221 236 232 212 201 160 154 169 201 222 247 226 228 263 234 239 252 252 269 292 306 304 311 329 333 335 343 281 202 194 192 196 202 207 211 213 213 207 203 200 198 196 200
233 218 205 181 153 163 183 186 216 219 218 240 188 228 254 256 260 269 270 285 309 335 339 344 354 353 351 352 353 238 194 191 197 205 210 218 221 217 214 211 208 203 199 203
227 234 195 195 203 190 200 210 219 238 241 253 203 234 251 269 303 300 280 277 309 339 342 343 349 349 349 345 347 342 229 208 200 208 218 224 226 226 222 216 211 208 211 212
220 240 121 213 258 199 188 214 246 251 282 265 240 250 270 237 247 253 251 269 303 332 342 349 354 351 351 346 337 329 317 278 232 223 222 231 230 233 232 226 220 215 215 210
227 247 221 193 203 234 238 184 176 204 228 246 251 247 247 234 247 247 240 245 292 340 360 354 358 358 354 345 342 346 348 332 320 310 272 260 244 245 242 232 233 228 219 205
226 230 224 200 209 203 178 188 210 217 237 240 255 252 274 246 242 233 237 244 281 323 347 358 3 5 5 5 6 358 350 354 354 335 310 279 261 253 240 237 246 245 235 214
206 222 243 238 248 285 224 215 202 215 229 234 258 267 49 259 241 211 235 306 330 342 343 357 10 18 14 8 7 4 356 350 346 339 327 294 276 258 240 244 252 256 243 230
169 192 237 236 199 191 232 231 230 242 239 226 237 253 100 86 166 228 269 307 316 338 348 3 13 14 8 358 355 358 354 349 349 346 337 324 305 285 272 269 267 260 248 239
182 206 223 243 264 198 226 233 221 218 233 240 241 254 258 262 264 269 279 291 302 320 342 358 1 360 2 355 348 348 347 347 352 355 345 329 313 297 290 290 277 258 247 236
188 230 236 257 267 251 248 245 227 224 234 243 252 254 263 264 258 258 261 274 300 310 331 339 348 351 351 351 348 342 336 345 352 357 352 333 322 317 316 315 300 280 263 256
196 227 228 254 250 255 260 254 239 239 245 248 258 264 268 268 257 250 247 234 264 297 304 310 324 333 334 329 327 326 323 326 333 340 335 340 344 342 333 320 320 317 297 285
202 197 223 255 265 276 257 241 231 233 234 238 248 258 256 242 237 229 221 218 251 283 300 301 298 302 311 312 310 304 305 305 300 311 330 343 338 335 333 326 316 305 291 284
200 194 223 259 231 246 256 204 223 233 243 239 255 272 255 246 251 235 219 236 269 291 300 299 301 306 315 319 317 313 321 326 321 319 326 331 327 324 327 324 317 305 295 278
217 206 211 222 246 265 267 231 214 228 253 245 252 264 271 274 260 240 226 267 278 297 306 306 305 306 316 328 328 324 342 342 332 319 315 316 314 315 318 313 309 310 300 289
213 214 216 218 238 249 267 309 228 211 254 291 242 245 238 193 239 246 354 331 330 339 339 335 332 333 337 341 337 336 350 341 314 308 305 304 301 298 298 298 302 304 293 291
190 208 220 229 241 257 294 341 169 217 280 2 276 246 214 226 276 346 354 351 353 345 348 357 356 357 352 350 345 339 341 324 315 311 309 306 300 293 289 293 302 303 303 303
198 204 213 218 234 247 98 149 199 273 12 342 324 292 247 274 324 337 329 336 348 351 358 1 358 358 2 1 351 333 328 325 322 318 317 313 308 303 301 298 305 311 304 295
213 215 217 214 234 334 149 186 180 356 306 318 311 306 262 269 285 299 304 322 341 347 349 352 351 354 2 359 349 324 325 328 326 325 321 321 320 315 315 302 299 301 293 284
226 234 230 252 260 275 266 269 320 337 317 328 326 311 260 255 261 277 290 314 331 341 343 347 353 351 348 347 345 333 329 330 325 320 320 323 320 319 320 308 297 286 280 279
227 202 225 250 268 277 247 236 275 311 339 348 345 339 299 280 279 281 287 298 314 329 338 342 339 329 328 334 336 343 341 336 326 318 318 320 317 315 306 298 287 284 278 275
212 213 222 245 238 237 253 247 240 245 271 286 302 325 337 309 286 289 291 300 311 320 330 335 333 329 326 329 333 342 336 329 316 309 315 310 307 306 304 302 300 287 288 292